International Virtual Aviation Organisation

Russian Federation and Kazakhstan MCD

 

Карточка аэропорта UIII

Внимание!
Информация на этой странице в стадии наполнения.
Если вы не увидели какой-то информации, или заметили неточность - пожалуйста сообщите нам!
Спасибо!
Команда RU-STAFF
Название аэропортаИркутск
Название аэропорта (англ.)Irkutsk
Превышение1686 ft. (513.9 m.)
Координаты52°16.032', 104°23.7'
Высота перехода1100m
Эшелон переходаFL070
Коды ответчика3330-3347
Зона ОрВДИркутск РПИ (UIII)
Данные METARUIII 300100Z 09002MPS 6000 OVC033 M17/M19 Q1038 RESN R12/490340 NOSIG RMK QFE735/0981
Проноз погоды (TAF)UIII 292300Z 3000/3024 VRB01MPS 5000 -SN BKN030 TEMPO 3000/3015 1200 SN BKN007
NOTAMshow/hide NOTAM
AWOS   TABLE

Информация о ВПП

ВПП Длина ВПП (м.) Покрытие Курс ВПП Частота ILS
123565Железобетон117111.3
303565Железобетон297110.3

Диспетчерские позиции

Позывной Наименование органа УВД Частота
UIII_APPИркутск-Подход125.2
UIII_R_APPИркутск-Круг119.3
UIII_TWRИркутск-Вышка118.1
UIII_GNDИркутск-Руление121.7
UIII_FSSИркутск-Транзит128.5



Спутниковое изображение